| time (UTC) | temp F | wind direction | speed MPH | gust MPH | rain 1hr in | rain 24hr in | rain mn in | humidity % | barometer mb |
| 20260508031010 | 68 | 152 | 0.0 | 1.0 | 0.00 | 0.00 | 0.00 | 42 | 1016.7 |
| 20260508030515 | 68 | 155 | 0.0 | 1.0 | 0.00 | 0.00 | 0.00 | 41 | 1016.7 |
| 20260508030026 | 68 | 89 | 0.0 | 2.0 | 0.00 | 0.00 | 0.00 | 41 | 1016.7 |
| 20260508025510 | 69 | 72 | 1.0 | 2.0 | 0.00 | 0.00 | 0.00 | 41 | 1016.7 |
| 20260508025004 | 69 | 146 | 0.0 | 2.0 | 0.00 | 0.00 | 0.00 | 42 | 1016.6 |
| 20260508024510 | 69 | 129 | 0.0 | 3.0 | 0.00 | 0.00 | 0.00 | 41 | 1016.6 |
| 20260508024003 | 69 | 109 | 1.0 | 3.0 | 0.00 | 0.00 | 0.00 | 41 | 1016.7 |
| 20260508023504 | 69 | 92 | 0.0 | 3.0 | 0.00 | 0.00 | 0.00 | 41 | 1016.7 |
| 20260508023011 | 70 | 143 | 1.0 | 3.0 | 0.00 | 0.00 | 0.00 | 41 | 1016.7 |
| 20260508022506 | 70 | 112 | 0.0 | 3.0 | 0.00 | 0.00 | 0.00 | 41 | 1016.7 |
| 20260508022012 | 70 | 113 | 1.0 | 3.0 | 0.00 | 0.00 | 0.00 | 40 | 1016.7 |
| 20260508021512 | 71 | 80 | 0.0 | 3.0 | 0.00 | 0.00 | 0.00 | 40 | 1016.6 |
| 20260508021013 | 71 | 97 | 1.0 | 4.0 | 0.00 | 0.00 | 0.00 | 40 | 1016.7 |
| 20260508020509 | 71 | 94 | 2.0 | 4.0 | 0.00 | 0.00 | 0.00 | 40 | 1016.7 |
| 20260508020017 | 71 | 108 | 1.0 | 3.0 | 0.00 | 0.00 | 0.00 | 40 | 1016.8 |
| 20260508015507 | 72 | 42 | 1.0 | 5.0 | 0.00 | 0.00 | 0.00 | 38 | 1016.9 |
| 20260508015010 | 71 | 61 | 2.0 | 5.0 | 0.00 | 0.00 | 0.00 | 39 | 1017.0 |
| 20260508014522 | 71 | 58 | 1.0 | 5.0 | 0.00 | 0.00 | 0.00 | 39 | 1017.0 |
| 20260508014013 | 71 | 25 | 2.0 | 5.0 | 0.00 | 0.00 | 0.00 | 39 | 1017.0 |
| 20260508013507 | 71 | 80 | 3.0 | 6.0 | 0.00 | 0.00 | 0.00 | 39 | 1017.0 |
| 20260508013006 | 71 | 70 | 2.0 | 6.0 | 0.00 | 0.00 | 0.00 | 40 | 1017.0 |
| 20260508012510 | 72 | 62 | 3.0 | 6.0 | 0.00 | 0.00 | 0.00 | 39 | 1017.0 |
| 20260508012003 | 71 | 55 | 2.0 | 6.0 | 0.00 | 0.00 | 0.00 | 40 | 1017.0 |
| 20260508011512 | 71 | 49 | 3.0 | 6.0 | 0.00 | 0.00 | 0.00 | 40 | 1017.1 |
| 20260508011008 | 72 | 94 | 2.0 | 5.0 | 0.00 | 0.00 | 0.00 | 39 | 1017.0 |
| 20260508010508 | 72 | 16 | 2.0 | 6.0 | 0.00 | 0.00 | 0.00 | 39 | 1017.1 |
| 20260508010025 | 72 | 75 | 3.0 | 6.0 | 0.00 | 0.00 | 0.00 | 39 | 1017.2 |
| 20260508005507 | 72 | 53 | 2.0 | 5.0 | 0.00 | 0.00 | 0.00 | 39 | 1017.3 |
| 20260508005008 | 72 | 78 | 2.0 | 6.0 | 0.00 | 0.00 | 0.00 | 39 | 1017.2 |
| 20260508004530 | 72 | 72 | 4.0 | 9.0 | 0.00 | 0.00 | 0.00 | 38 | 1017.2 |
| 20260508004010 | 72 | 47 | 3.0 | 9.0 | 0.00 | 0.00 | 0.00 | 38 | 1017.3 |
| 20260508003507 | 73 | 46 | 3.0 | 6.0 | 0.00 | 0.00 | 0.00 | 38 | 1017.4 |
| 20260508003024 | 73 | 92 | 3.0 | 6.0 | 0.00 | 0.00 | 0.00 | 37 | 1017.4 |
| 20260508002510 | 73 | 98 | 1.0 | 6.0 | 0.00 | 0.00 | 0.00 | 37 | 1017.4 |
| 20260508002014 | 73 | 79 | 3.0 | 6.0 | 0.00 | 0.00 | 0.00 | 36 | 1017.5 |
| 20260508001530 | 73 | 97 | 1.0 | 6.0 | 0.00 | 0.00 | 0.00 | 36 | 1017.4 |
| 20260508001004 | 73 | 101 | 2.0 | 5.0 | 0.00 | 0.00 | 0.00 | 35 | 1017.6 |
| 20260508000508 | 74 | 16 | 1.0 | 4.0 | 0.00 | 0.00 | 0.00 | 34 | 1017.7 |
| 20260508000015 | 73 | 352 | 1.0 | 4.0 | 0.00 | 0.00 | 0.00 | 35 | 1017.7 |
| 20260507235508 | 73 | 283 | 2.0 | 5.0 | 0.00 | 0.00 | 0.00 | 33 | 1017.7 |
| 20260507235009 | 73 | 233 | 2.0 | 5.0 | 0.00 | 0.00 | 0.00 | 34 | 1017.8 |
| 20260507234527 | 73 | 321 | 2.0 | 8.0 | 0.00 | 0.00 | 0.00 | 33 | 1017.8 |
| 20260507234008 | 74 | 168 | 3.0 | 8.0 | 0.00 | 0.00 | 0.00 | 32 | 1017.7 |
| 20260507233508 | 74 | 51 | 2.0 | 4.0 | 0.00 | 0.00 | 0.00 | 36 | 1017.8 |
| 20260507233025 | 74 | 14 | 2.0 | 4.0 | 0.00 | 0.00 | 0.00 | 40 | 1017.8 |
| 20260507232507 | 73 | 68 | 1.0 | 4.0 | 0.00 | 0.00 | 0.00 | 41 | 1017.9 |
| 20260507232003 | 73 | 124 | 2.0 | 6.0 | 0.00 | 0.00 | 0.00 | 41 | 1018.0 |
| 20260507231506 | 72 | 285 | 2.0 | 6.0 | 0.00 | 0.00 | 0.00 | 41 | 1018.0 |
| 20260507231004 | 72 | 341 | 1.0 | 8.0 | 0.00 | 0.00 | 0.00 | 37 | 1018.1 |
| 20260507230505 | 71 | 302 | 2.0 | 8.0 | 0.00 | 0.00 | 0.00 | 36 | 1018.1 |
| 20260507230011 | 72 | 306 | 3.0 | 6.0 | 0.00 | 0.00 | 0.00 | 32 | 1018.2 |
| 20260507225509 | 72 | 293 | 2.0 | 5.0 | 0.00 | 0.00 | 0.00 | 36 | 1018.3 |
| 20260507225008 | 72 | 30 | 3.0 | 7.0 | 0.00 | 0.00 | 0.00 | 36 | 1018.4 |
| 20260507224521 | 72 | 27 | 3.0 | 7.0 | 0.00 | 0.00 | 0.00 | 36 | 1018.5 |
| 20260507224005 | 72 | 113 | 2.0 | 6.0 | 0.00 | 0.00 | 0.00 | 36 | 1018.5 |
| 20260507223515 | 72 | 79 | 2.0 | 6.0 | 0.00 | 0.00 | 0.00 | 37 | 1018.6 |
| 20260507223019 | 71 | 327 | 2.0 | 5.0 | 0.00 | 0.00 | 0.00 | 37 | 1018.7 |
| 20260507222516 | 71 | 91 | 1.0 | 5.0 | 0.00 | 0.00 | 0.00 | 38 | 1018.7 |
| 20260507222014 | 71 | 357 | 1.0 | 8.0 | 0.00 | 0.00 | 0.00 | 38 | 1018.8 |
| 20260507221523 | 70 | 39 | 4.0 | 9.0 | 0.00 | 0.00 | 0.00 | 39 | 1018.7 |
| 20260507221016 | 69 | 37 | 6.0 | 10.0 | 0.00 | 0.00 | 0.00 | 38 | 1018.8 |
| 20260507220519 | 70 | 44 | 4.0 | 10.0 | 0.00 | 0.00 | 0.00 | 41 | 1018.9 |
| 20260507220008 | 69 | 266 | 3.0 | 9.0 | 0.00 | 0.00 | 0.00 | 40 | 1019.0 |
| 20260507215505 | 70 | 329 | 1.0 | 9.0 | 0.00 | 0.00 | 0.00 | 41 | 1019.1 |
| 20260507215008 | 70 | 289 | 1.0 | 5.0 | 0.00 | 0.00 | 0.00 | 44 | 1019.2 |
| 20260507214519 | 69 | 139 | 3.0 | 6.0 | 0.00 | 0.00 | 0.00 | 44 | 1019.2 |
| 20260507214007 | 68 | 226 | 3.0 | 8.0 | 0.00 | 0.00 | 0.00 | 45 | 1019.3 |
| 20260507213509 | 68 | 84 | 2.0 | 9.0 | 0.00 | 0.00 | 0.00 | 45 | 1019.3 |
| 20260507213017 | 68 | 41 | 3.0 | 9.0 | 0.00 | 0.00 | 0.00 | 46 | 1019.2 |
| 20260507212511 | 68 | 310 | 3.0 | 7.0 | 0.00 | 0.00 | 0.00 | 46 | 1019.3 |
| 20260507212013 | 68 | 302 | 3.0 | 8.0 | 0.00 | 0.00 | 0.00 | 46 | 1019.4 |
| 20260507211518 | 67 | 275 | 3.0 | 9.0 | 0.00 | 0.00 | 0.00 | 47 | 1019.3 |
| 20260507211012 | 67 | 57 | 5.0 | 9.0 | 0.00 | 0.00 | 0.00 | 47 | 1019.4 |
| 20260507210508 | 68 | 290 | 3.0 | 6.0 | 0.00 | 0.00 | 0.00 | 46 | 1019.5 |
| 20260507210027 | 68 | 276 | 3.0 | 5.0 | 0.00 | 0.00 | 0.00 | 48 | 1019.6 |
| 20260507205508 | 67 | 298 | 3.0 | 6.0 | 0.00 | 0.00 | 0.00 | 49 | 1019.6 |
| 20260507205009 | 67 | 13 | 4.0 | 6.0 | 0.00 | 0.00 | 0.00 | 49 | 1019.7 |
| 20260507204526 | 67 | 321 | 2.0 | 6.0 | 0.00 | 0.00 | 0.00 | 49 | 1019.7 |
| 20260507204009 | 66 | 105 | 2.0 | 8.0 | 0.00 | 0.00 | 0.00 | 49 | 1019.8 |
| 20260507203510 | 66 | 19 | 3.0 | 8.0 | 0.00 | 0.00 | 0.00 | 50 | 1019.9 |
| 20260507203014 | 66 | 293 | 4.0 | 8.0 | 0.00 | 0.00 | 0.00 | 49 | 1020.0 |
| 20260507202506 | 65 | 101 | 2.0 | 7.0 | 0.00 | 0.00 | 0.00 | 49 | 1020.1 |
| 20260507202011 | 66 | 278 | 2.0 | 6.0 | 0.00 | 0.00 | 0.00 | 51 | 1020.1 |
| 20260507201518 | 65 | 324 | 3.0 | 8.0 | 0.00 | 0.00 | 0.00 | 52 | 1020.1 |
| 20260507201007 | 65 | 84 | 2.0 | 8.0 | 0.00 | 0.00 | 0.00 | 53 | 1020.2 |
| 20260507200509 | 64 | 128 | 1.0 | 6.0 | 0.00 | 0.00 | 0.00 | 53 | 1020.2 |
| 20260507200021 | 64 | 66 | 2.0 | 6.0 | 0.00 | 0.00 | 0.00 | 52 | 1020.3 |
| 20260507195507 | 64 | 335 | 1.0 | 6.0 | 0.00 | 0.00 | 0.00 | 54 | 1020.4 |
| 20260507195008 | 64 | 5 | 2.0 | 8.0 | 0.00 | 0.00 | 0.00 | 53 | 1020.4 |
| 20260507194526 | 65 | 56 | 5.0 | 8.0 | 0.00 | 0.00 | 0.00 | 53 | 1020.5 |
| 20260507194007 | 64 | 214 | 1.0 | 3.0 | 0.00 | 0.00 | 0.00 | 53 | 1020.5 |
| 20260507193507 | 64 | 302 | 0.0 | 4.0 | 0.00 | 0.00 | 0.00 | 52 | 1020.6 |
| 20260507193028 | 63 | 78 | 1.0 | 6.0 | 0.00 | 0.00 | 0.00 | 55 | 1020.7 |
| 20260507192510 | 63 | 322 | 1.0 | 6.0 | 0.00 | 0.00 | 0.00 | 56 | 1020.8 |
| 20260507192005 | 62 | 318 | 2.0 | 7.0 | 0.00 | 0.00 | 0.00 | 56 | 1020.7 |
| 20260507191514 | 62 | 354 | 4.0 | 7.0 | 0.00 | 0.00 | 0.00 | 55 | 1020.8 |
| 20260507191008 | 62 | 338 | 0.0 | 4.0 | 0.00 | 0.00 | 0.00 | 56 | 1020.7 |
| 20260507190509 | 62 | 296 | 2.0 | 5.0 | 0.00 | 0.00 | 0.00 | 56 | 1020.8 |
| 20260507190020 | 62 | 182 | 2.0 | 6.0 | 0.00 | 0.00 | 0.00 | 56 | 1020.9 |
| 20260507185509 | 61 | 136 | 1.0 | 6.0 | 0.00 | 0.00 | 0.00 | 57 | 1021.1 |
| 20260507185011 | 62 | 354 | 3.0 | 7.0 | 0.00 | 0.00 | 0.00 | 57 | 1021.0 |
| 20260507184522 | 61 | 332 | 2.0 | 7.0 | 0.00 | 0.00 | 0.00 | 58 | 1021.1 |
| 20260507184007 | 62 | 66 | 2.0 | 4.0 | 0.00 | 0.00 | 0.00 | 57 | 1021.1 |
| 20260507183513 | 61 | 207 | 1.0 | 7.0 | 0.00 | 0.00 | 0.00 | 58 | 1021.1 |
| 20260507183024 | 60 | 271 | 1.0 | 7.0 | 0.00 | 0.00 | 0.00 | 59 | 1021.2 |
| 20260507182510 | 60 | 141 | 2.0 | 8.0 | 0.00 | 0.00 | 0.00 | 59 | 1021.3 |
| 20260507182011 | 60 | 310 | 3.0 | 8.0 | 0.00 | 0.00 | 0.00 | 60 | 1021.4 |
| 20260507181528 | 60 | 302 | 4.0 | 6.0 | 0.00 | 0.00 | 0.00 | 59 | 1021.4 |
| 20260507181014 | 59 | 309 | 1.0 | 5.0 | 0.00 | 0.00 | 0.00 | 60 | 1021.6 |
| 20260507180510 | 59 | 240 | 2.0 | 7.0 | 0.00 | 0.00 | 0.00 | 60 | 1021.6 |
| 20260507180016 | 59 | 20 | 4.0 | 7.0 | 0.00 | 0.00 | 0.00 | 60 | 1021.6 |
| 20260507175511 | 59 | 321 | 1.0 | 5.0 | 0.00 | 0.00 | 0.00 | 60 | 1021.6 |
| 20260507175009 | 58 | 286 | 2.0 | 8.0 | 0.00 | 0.00 | 0.00 | 61 | 1021.7 |
| 20260507174540 | 59 | 34 | 3.0 | 8.0 | 0.00 | 0.00 | 0.00 | 61 | 1021.7 |
| 20260507174017 | 59 | 295 | 1.0 | 5.0 | 0.00 | 0.00 | 0.00 | 60 | 1021.7 |
| 20260507173514 | 59 | 33 | 2.0 | 6.0 | 0.00 | 0.00 | 0.00 | 62 | 1021.8 |
| 20260507173027 | 58 | 72 | 2.0 | 6.0 | 0.00 | 0.00 | 0.00 | 63 | 1021.8 |
| 20260507172510 | 58 | 46 | 2.0 | 6.0 | 0.00 | 0.00 | 0.00 | 62 | 1021.8 |
| 20260507172019 | 58 | 31 | 1.0 | 5.0 | 0.00 | 0.00 | 0.00 | 64 | 1021.9 |
| 20260507171539 | 57 | 98 | 2.0 | 5.0 | 0.00 | 0.00 | 0.00 | 63 | 1021.9 |
| 20260507171011 | 57 | 107 | 3.0 | 4.0 | 0.00 | 0.00 | 0.00 | 63 | 1021.9 |
| 20260507170515 | 56 | 194 | 2.0 | 6.0 | 0.00 | 0.00 | 0.00 | 66 | 1022.0 |
| 20260507170028 | 55 | 56 | 3.0 | 6.0 | 0.00 | 0.00 | 0.00 | 65 | 1022.0 |
| 20260507165518 | 55 | 63 | 3.0 | 7.0 | 0.00 | 0.00 | 0.00 | 66 | 1022.0 |
| 20260507165015 | 55 | 11 | 4.0 | 7.0 | 0.00 | 0.00 | 0.00 | 65 | 1022.1 |
| 20260507164528 | 55 | 118 | 3.0 | 6.0 | 0.00 | 0.00 | 0.00 | 66 | 1022.1 |
| 20260507164011 | 55 | 32 | 2.0 | 6.0 | 0.00 | 0.00 | 0.00 | 66 | 1022.1 |
| 20260507163508 | 55 | 106 | 2.0 | 7.0 | 0.00 | 0.00 | 0.00 | 67 | 1022.1 |
| 20260507163023 | 55 | 60 | 3.0 | 7.0 | 0.00 | 0.00 | 0.00 | 66 | 1022.1 |
| 20260507162508 | 54 | 64 | 1.0 | 6.0 | 0.00 | 0.00 | 0.00 | 67 | 1022.1 |
| 20260507162010 | 54 | 117 | 0.0 | 6.0 | 0.00 | 0.00 | 0.00 | 68 | 1022.1 |
| 20260507161523 | 54 | 67 | 1.0 | 7.0 | 0.00 | 0.00 | 0.00 | 68 | 1022.1 |
| 20260507161012 | 53 | 9 | 2.0 | 7.0 | 0.00 | 0.00 | 0.00 | 68 | 1022.1 |
| 20260507160512 | 53 | 72 | 3.0 | 6.0 | 0.00 | 0.00 | 0.00 | 68 | 1022.1 |
| 20260507160031 | 53 | 127 | 3.0 | 8.0 | 0.00 | 0.00 | 0.00 | 69 | 1022.1 |
| 20260507155511 | 53 | 83 | 4.0 | 8.0 | 0.00 | 0.00 | 0.00 | 69 | 1022.1 |
| 20260507155010 | 53 | 67 | 2.0 | 8.0 | 0.00 | 0.00 | 0.00 | 70 | 1022.1 |
| 20260507154527 | 53 | 58 | 3.0 | 7.0 | 0.00 | 0.00 | 0.00 | 69 | 1022.1 |
| 20260507154011 | 52 | 83 | 3.0 | 7.0 | 0.00 | 0.00 | 0.00 | 69 | 1022.1 |
| 20260507153511 | 52 | 94 | 3.0 | 7.0 | 0.00 | 0.00 | 0.00 | 69 | 1022.2 |
| 20260507153029 | 52 | 75 | 3.0 | 8.0 | 0.00 | 0.00 | 0.00 | 69 | 1022.1 |
| 20260507152512 | 52 | 41 | 3.0 | 8.0 | 0.00 | 0.00 | 0.00 | 69 | 1022.1 |
| 20260507152008 | 53 | 32 | 2.0 | 8.0 | 0.00 | 0.00 | 0.00 | 69 | 1022.1 |
| 20260507151522 | 52 | 76 | 3.0 | 8.0 | 0.00 | 0.00 | 0.00 | 69 | 1022.1 |
| 20260507151007 | 53 | 70 | 2.0 | 6.0 | 0.00 | 0.00 | 0.00 | 69 | 1022.1 |
| 20260507150509 | 52 | 46 | 2.0 | 7.0 | 0.00 | 0.00 | 0.00 | 69 | 1022.0 |
| 20260507150026 | 53 | 46 | 4.0 | 7.0 | 0.00 | 0.00 | 0.00 | 69 | 1022.0 |
| 20260507145502 | 52 | 70 | 3.0 | 6.0 | 0.00 | 0.00 | 0.00 | 69 | 1022.1 |
| 20260507145011 | 53 | 85 | 3.0 | 6.0 | 0.00 | 0.00 | 0.00 | 69 | 1022.0 |
| 20260507144510 | 52 | 50 | 3.0 | 5.0 | 0.00 | 0.00 | 0.00 | 69 | 1022.0 |
| 20260507144007 | 52 | 95 | 2.0 | 4.0 | 0.00 | 0.00 | 0.00 | 69 | 1022.0 |
| 20260507143508 | 52 | 78 | 2.0 | 4.0 | 0.00 | 0.00 | 0.00 | 69 | 1022.0 |
| 20260507143018 | 52 | 59 | 0.0 | 2.0 | 0.00 | 0.00 | 0.00 | 70 | 1021.9 |
| 20260507142509 | 52 | 90 | 1.0 | 2.0 | 0.00 | 0.00 | 0.00 | 71 | 1021.9 |
| 20260507142006 | 52 | 131 | 0.0 | 2.0 | 0.00 | 0.00 | 0.00 | 71 | 1021.9 |
| 20260507141522 | 52 | 63 | 1.0 | 3.0 | 0.00 | 0.00 | 0.00 | 71 | 1021.9 |
| 20260507141007 | 52 | 91 | 0.0 | 3.0 | 0.00 | 0.00 | 0.00 | 71 | 1021.9 |
| 20260507140503 | 52 | 117 | 0.0 | 5.0 | 0.00 | 0.00 | 0.00 | 71 | 1021.8 |
| 20260507140009 | 52 | 81 | 2.0 | 5.0 | 0.00 | 0.00 | 0.00 | 71 | 1021.8 |
| 20260507135504 | 52 | 75 | 1.0 | 5.0 | 0.00 | 0.00 | 0.00 | 71 | 1021.7 |
| 20260507135011 | 52 | 95 | 0.0 | 3.0 | 0.00 | 0.00 | 0.00 | 72 | 1021.7 |
| 20260507134510 | 52 | 132 | 0.0 | 3.0 | 0.00 | 0.00 | 0.00 | 72 | 1021.7 |
| 20260507134003 | 52 | 107 | 2.0 | 3.0 | 0.00 | 0.00 | 0.00 | 72 | 1021.7 |
| 20260507133507 | 52 | 110 | 1.0 | 3.0 | 0.00 | 0.00 | 0.00 | 72 | 1021.6 |
| 20260507133014 | 52 | 110 | 1.0 | 3.0 | 0.00 | 0.00 | 0.00 | 72 | 1021.6 |
| 20260507132508 | 52 | 129 | 1.0 | 4.0 | 0.00 | 0.00 | 0.00 | 72 | 1021.6 |
| 20260507132009 | 52 | 77 | 2.0 | 4.0 | 0.00 | 0.00 | 0.00 | 72 | 1021.6 |
| 20260507131533 | 52 | 104 | 1.0 | 3.0 | 0.00 | 0.00 | 0.00 | 72 | 1021.7 |
| 20260507131011 | 52 | 82 | 0.0 | 4.0 | 0.00 | 0.00 | 0.00 | 72 | 1021.7 |
| 20260507130510 | 52 | 147 | 0.0 | 4.0 | 0.00 | 0.00 | 0.00 | 72 | 1021.6 |
| 20260507130022 | 52 | 84 | 1.0 | 3.0 | 0.00 | 0.00 | 0.00 | 72 | 1021.7 |
| 20260507125512 | 52 | 93 | 0.0 | 2.0 | 0.00 | 0.00 | 0.00 | 72 | 1021.7 |
| 20260507125005 | 52 | 105 | 1.0 | 2.0 | 0.00 | 0.00 | 0.00 | 71 | 1021.7 |
| 20260507124506 | 52 | 76 | 0.0 | 2.0 | 0.00 | 0.00 | 0.00 | 72 | 1021.7 |
| 20260507124005 | 52 | 88 | 1.0 | 2.0 | 0.00 | 0.00 | 0.00 | 72 | 1021.7 |
| 20260507123507 | 52 | 108 | 0.0 | 5.0 | 0.00 | 0.00 | 0.00 | 71 | 1021.7 |
| 20260507123013 | 52 | 101 | 1.0 | 5.0 | 0.00 | 0.00 | 0.00 | 71 | 1021.8 |
| 20260507122503 | 52 | 96 | 0.0 | 4.0 | 0.00 | 0.00 | 0.00 | 72 | 1021.8 |
| 20260507122009 | 52 | 68 | 1.0 | 4.0 | 0.00 | 0.00 | 0.00 | 72 | 1021.8 |
| 20260507121516 | 52 | 99 | 1.0 | 4.0 | 0.00 | 0.00 | 0.00 | 72 | 1021.8 |
| 20260507121008 | 52 | 107 | 1.0 | 4.0 | 0.00 | 0.00 | 0.00 | 72 | 1021.8 |
| 20260507120509 | 52 | 99 | 1.0 | 4.0 | 0.00 | 0.00 | 0.00 | 72 | 1021.9 |
| 20260507120028 | 52 | 84 | 1.0 | 2.0 | 0.00 | 0.00 | 0.00 | 72 | 1021.9 |
| 20260507115509 | 53 | 91 | 1.0 | 3.0 | 0.00 | 0.00 | 0.00 | 72 | 1022.0 |
| 20260507115006 | 53 | 95 | 1.0 | 4.0 | 0.00 | 0.00 | 0.00 | 72 | 1022.0 |
| 20260507114525 | 53 | 46 | 2.0 | 4.0 | 0.00 | 0.00 | 0.00 | 72 | 1022.0 |
| 20260507114010 | 53 | 44 | 0.0 | 4.0 | 0.00 | 0.00 | 0.00 | 72 | 1022.0 |
| 20260507113511 | 53 | 96 | 1.0 | 4.0 | 0.00 | 0.00 | 0.00 | 72 | 1022.0 |
| 20260507113056 | 53 | 48 | 2.0 | 6.0 | 0.00 | 0.00 | 0.00 | 72 | 1022.0 |
| 20260507112516 | 53 | 106 | 1.0 | 6.0 | 0.00 | 0.00 | 0.00 | 72 | 1022.0 |
| 20260507112011 | 53 | 69 | 1.0 | 4.0 | 0.00 | 0.00 | 0.00 | 72 | 1022.0 |
| 20260507111532 | 53 | 70 | 3.0 | 7.0 | 0.00 | 0.00 | 0.00 | 72 | 1022.0 |
| 20260507111011 | 53 | 67 | 1.0 | 7.0 | 0.00 | 0.00 | 0.00 | 73 | 1022.0 |
| 20260507110511 | 53 | 71 | 2.0 | 7.0 | 0.00 | 0.00 | 0.00 | 73 | 1022.0 |
| 20260507110016 | 53 | 34 | 2.0 | 7.0 | 0.00 | 0.00 | 0.00 | 72 | 1022.0 |
| 20260507105506 | 53 | 87 | 2.0 | 8.0 | 0.00 | 0.00 | 0.00 | 72 | 1022.1 |
| 20260507105006 | 53 | 26 | 3.0 | 8.0 | 0.00 | 0.00 | 0.00 | 72 | 1022.1 |
| 20260507104520 | 53 | 56 | 3.0 | 8.0 | 0.00 | 0.00 | 0.00 | 72 | 1022.1 |
| 20260507104011 | 53 | 95 | 1.0 | 7.0 | 0.00 | 0.00 | 0.00 | 73 | 1022.2 |
| 20260507103507 | 53 | 64 | 2.0 | 7.0 | 0.00 | 0.00 | 0.00 | 73 | 1022.2 |
| 20260507103026 | 53 | 98 | 3.0 | 7.0 | 0.00 | 0.00 | 0.00 | 73 | 1022.2 |
| 20260507102509 | 53 | 94 | 0.0 | 4.0 | 0.00 | 0.00 | 0.00 | 73 | 1022.2 |
| 20260507102007 | 53 | 77 | 1.0 | 5.0 | 0.00 | 0.00 | 0.00 | 73 | 1022.2 |
| 20260507101527 | 54 | 86 | 2.0 | 8.0 | 0.00 | 0.00 | 0.00 | 73 | 1022.3 |
| 20260507101012 | 54 | 104 | 1.0 | 8.0 | 0.00 | 0.00 | 0.00 | 73 | 1022.3 |
| 20260507100511 | 54 | 66 | 1.0 | 3.0 | 0.00 | 0.00 | 0.00 | 73 | 1022.3 |
| 20260507100038 | 54 | 58 | 0.0 | 3.0 | 0.00 | 0.00 | 0.00 | 74 | 1022.3 |
| 20260507095511 | 54 | 105 | 1.0 | 4.0 | 0.00 | 0.00 | 0.00 | 74 | 1022.4 |
| 20260507095009 | 54 | 89 | 1.0 | 5.0 | 0.00 | 0.00 | 0.00 | 73 | 1022.4 |
| 20260507094528 | 54 | 102 | 1.0 | 5.0 | 0.00 | 0.00 | 0.00 | 73 | 1022.4 |
| 20260507094008 | 54 | 86 | 2.0 | 5.0 | 0.00 | 0.00 | 0.00 | 73 | 1022.3 |
| 20260507093507 | 54 | 87 | 1.0 | 6.0 | 0.00 | 0.00 | 0.00 | 72 | 1022.4 |
| 20260507093027 | 54 | 101 | 2.0 | 6.0 | 0.00 | 0.00 | 0.00 | 72 | 1022.4 |
| 20260507092512 | 54 | 96 | 0.0 | 2.0 | 0.00 | 0.00 | 0.00 | 73 | 1022.5 |
| 20260507092008 | 54 | 70 | 0.0 | 3.0 | 0.00 | 0.00 | 0.00 | 72 | 1022.5 |
| 20260507091529 | 54 | 44 | 1.0 | 6.0 | 0.00 | 0.00 | 0.00 | 72 | 1022.5 |
| 20260507091010 | 54 | 72 | 2.0 | 6.0 | 0.00 | 0.00 | 0.00 | 72 | 1022.5 |
| 20260507090512 | 54 | 46 | 2.0 | 5.0 | 0.00 | 0.00 | 0.00 | 72 | 1022.6 |
| 20260507090024 | 54 | 69 | 3.0 | 5.0 | 0.00 | 0.00 | 0.00 | 72 | 1022.6 |
| 20260507085504 | 55 | 46 | 1.0 | 5.0 | 0.00 | 0.00 | 0.00 | 72 | 1022.5 |
| 20260507085005 | 54 | 57 | 1.0 | 4.0 | 0.00 | 0.00 | 0.00 | 72 | 1022.6 |
| 20260507084518 | 54 | 75 | 2.0 | 4.0 | 0.00 | 0.00 | 0.00 | 72 | 1022.6 |
| 20260507084004 | 55 | 23 | 1.0 | 7.0 | 0.00 | 0.00 | 0.00 | 73 | 1022.5 |
| 20260507083506 | 54 | 44 | 0.0 | 7.0 | 0.00 | 0.00 | 0.00 | 73 | 1022.5 |
| 20260507083012 | 55 | 57 | 1.0 | 4.0 | 0.00 | 0.00 | 0.00 | 73 | 1022.6 |
| 20260507082504 | 55 | 99 | 1.0 | 3.0 | 0.00 | 0.00 | 0.00 | 73 | 1022.6 |
| 20260507082004 | 55 | 77 | 2.0 | 4.0 | 0.00 | 0.00 | 0.00 | 73 | 1022.6 |
| 20260507081504 | 55 | 64 | 1.0 | 5.0 | 0.00 | 0.00 | 0.00 | 73 | 1022.6 |
| 20260507081007 | 55 | 6 | 2.0 | 5.0 | 0.00 | 0.00 | 0.00 | 74 | 1022.6 |
| 20260507080505 | 55 | 75 | 2.0 | 5.0 | 0.00 | 0.00 | 0.00 | 74 | 1022.5 |
| 20260507080007 | 55 | 4 | 2.0 | 6.0 | 0.00 | 0.00 | 0.00 | 74 | 1022.5 |
| 20260507075505 | 55 | 70 | 3.0 | 6.0 | 0.00 | 0.00 | 0.00 | 74 | 1022.6 |
| 20260507075008 | 55 | 70 | 3.0 | 5.0 | 0.00 | 0.00 | 0.00 | 74 | 1022.6 |
| 20260507074506 | 55 | 44 | 2.0 | 4.0 | 0.00 | 0.00 | 0.00 | 74 | 1022.6 |
| 20260507074005 | 55 | 65 | 2.0 | 4.0 | 0.00 | 0.00 | 0.00 | 74 | 1022.6 |
| 20260507073505 | 55 | 55 | 1.0 | 4.0 | 0.00 | 0.00 | 0.00 | 74 | 1022.6 |
| 20260507073010 | 55 | 44 | 2.0 | 4.0 | 0.00 | 0.00 | 0.00 | 74 | 1022.6 |
| 20260507072504 | 55 | 75 | 0.0 | 5.0 | 0.00 | 0.00 | 0.00 | 74 | 1022.5 |
| 20260507072007 | 55 | 48 | 1.0 | 6.0 | 0.00 | 0.00 | 0.00 | 74 | 1022.5 |
| 20260507071516 | 55 | 39 | 3.0 | 6.0 | 0.00 | 0.00 | 0.00 | 74 | 1022.4 |
| 20260507071004 | 55 | 32 | 1.0 | 4.0 | 0.00 | 0.00 | 0.00 | 74 | 1022.4 |
| 20260507070504 | 55 | 73 | 2.0 | 5.0 | 0.00 | 0.00 | 0.00 | 74 | 1022.4 |
| 20260507070016 | 55 | 115 | 1.0 | 5.0 | 0.00 | 0.00 | 0.00 | 74 | 1022.4 |
| 20260507065503 | 55 | 52 | 1.0 | 4.0 | 0.00 | 0.00 | 0.00 | 75 | 1022.4 |
| 20260507065003 | 55 | 49 | 2.0 | 5.0 | 0.00 | 0.00 | 0.00 | 75 | 1022.4 |
| 20260507064507 | 55 | 66 | 2.0 | 6.0 | 0.00 | 0.00 | 0.00 | 75 | 1022.5 |
| 20260507064003 | 55 | 47 | 2.0 | 6.0 | 0.00 | 0.00 | 0.00 | 75 | 1022.5 |
| 20260507063503 | 55 | 126 | 2.0 | 7.0 | 0.00 | 0.00 | 0.00 | 75 | 1022.5 |
| 20260507063016 | 55 | 56 | 3.0 | 9.0 | 0.00 | 0.00 | 0.00 | 74 | 1022.5 |
| 20260507062507 | 55 | 50 | 3.0 | 9.0 | 0.00 | 0.00 | 0.00 | 74 | 1022.5 |
| 20260507062007 | 55 | 68 | 2.0 | 7.0 | 0.00 | 0.00 | 0.00 | 74 | 1022.6 |
| 20260507061514 | 55 | 45 | 3.0 | 7.0 | 0.00 | 0.00 | 0.00 | 74 | 1022.6 |
| 20260507061012 | 55 | 106 | 3.0 | 6.0 | 0.00 | 0.00 | 0.00 | 74 | 1022.6 |
| 20260507060506 | 55 | 77 | 0.0 | 6.0 | 0.00 | 0.00 | 0.00 | 74 | 1022.6 |
| 20260507060013 | 56 | 86 | 3.0 | 6.0 | 0.00 | 0.00 | 0.00 | 74 | 1022.5 |
| 20260507055508 | 56 | 52 | 2.0 | 8.0 | 0.00 | 0.00 | 0.00 | 74 | 1022.5 |
| 20260507055004 | 56 | 48 | 2.0 | 8.0 | 0.00 | 0.00 | 0.00 | 74 | 1022.5 |
| 20260507054504 | 56 | 99 | 3.0 | 8.0 | 0.00 | 0.00 | 0.00 | 74 | 1022.5 |
| 20260507054004 | 56 | 82 | 2.0 | 10.0 | 0.00 | 0.00 | 0.00 | 74 | 1022.5 |
| 20260507053504 | 56 | 46 | 2.0 | 10.0 | 0.00 | 0.00 | 0.00 | 74 | 1022.5 |
| 20260507053010 | 56 | 93 | 3.0 | 8.0 | 0.00 | 0.00 | 0.00 | 74 | 1022.5 |
| 20260507052504 | 56 | 66 | 4.0 | 13.0 | 0.00 | 0.00 | 0.00 | 74 | 1022.4 |
| 20260507052007 | 56 | 106 | 4.0 | 13.0 | 0.00 | 0.00 | 0.00 | 73 | 1022.4 |
| 20260507051514 | 56 | 86 | 2.0 | 11.0 | 0.00 | 0.00 | 0.00 | 73 | 1022.4 |
| 20260507051011 | 56 | 106 | 4.0 | 11.0 | 0.00 | 0.00 | 0.00 | 73 | 1022.4 |
| 20260507050511 | 57 | 81 | 3.0 | 12.0 | 0.00 | 0.00 | 0.00 | 73 | 1022.5 |
| 20260507050035 | 57 | 98 | 3.0 | 12.0 | 0.00 | 0.00 | 0.00 | 73 | 1022.4 |
| 20260507045508 | 57 | 110 | 5.0 | 11.0 | 0.00 | 0.00 | 0.00 | 72 | 1022.4 |
| 20260507045007 | 57 | 99 | 3.0 | 12.0 | 0.00 | 0.00 | 0.00 | 72 | 1022.4 |
| 20260507044522 | 57 | 179 | 4.0 | 12.0 | 0.00 | 0.00 | 0.00 | 72 | 1022.5 |
| 20260507044006 | 57 | 74 | 4.0 | 9.0 | 0.00 | 0.00 | 0.00 | 72 | 1022.5 |
| 20260507043506 | 57 | 77 | 2.0 | 11.0 | 0.00 | 0.00 | 0.00 | 72 | 1022.3 |
| 20260507043006 | 57 | 89 | 4.0 | 13.0 | 0.00 | 0.00 | 0.00 | 72 | 1022.3 |
| 20260507042503 | 57 | 65 | 5.0 | 13.0 | 0.00 | 0.00 | 0.00 | 71 | 1022.2 |
| 20260507042003 | 58 | 73 | 3.0 | 7.0 | 0.00 | 0.00 | 0.00 | 71 | 1022.2 |
| 20260507041512 | 58 | 94 | 2.0 | 7.0 | 0.00 | 0.00 | 0.00 | 71 | 1022.2 |
| 20260507041007 | 58 | 73 | 2.0 | 8.0 | 0.00 | 0.00 | 0.00 | 71 | 1022.2 |
| 20260507040507 | 58 | 103 | 3.0 | 10.0 | 0.00 | 0.00 | 0.00 | 71 | 1022.2 |
| 20260507040018 | 58 | 93 | 4.0 | 11.0 | 0.00 | 0.00 | 0.00 | 71 | 1022.1 |
| 20260507035508 | 58 | 82 | 4.0 | 11.0 | 0.00 | 0.00 | 0.00 | 71 | 1021.9 |
| 20260507035008 | 59 | 82 | 2.0 | 11.0 | 0.00 | 0.00 | 0.00 | 71 | 1021.9 |
| 20260507034519 | 59 | 84 | 4.0 | 9.0 | 0.00 | 0.00 | 0.00 | 71 | 1021.8 |
| 20260507034013 | 59 | 47 | 3.0 | 9.0 | 0.00 | 0.00 | 0.00 | 71 | 1021.7 |
| 20260507033507 | 59 | 72 | 4.0 | 12.0 | 0.00 | 0.00 | 0.00 | 71 | 1021.7 |
| 20260507033028 | 59 | 20 | 6.0 | 12.0 | 0.00 | 0.00 | 0.00 | 70 | 1021.6 |
| 20260507032507 | 59 | 59 | 3.0 | 9.0 | 0.00 | 0.00 | 0.00 | 71 | 1021.5 |
| 20260507032010 | 60 | 103 | 4.0 | 9.0 | 0.00 | 0.00 | 0.00 | 70 | 1021.4 |
| 20260507031528 | 60 | 120 | 3.0 | 7.0 | 0.00 | 0.00 | 0.00 | 70 | 1021.4 |